Time,TemperatureF,DewpointF,PressureIn,WindDirection,WindDirectionDegrees,WindSpeedMPH,WindSpeedGustMPH,Humidity,HourlyPrecipIn,Conditions,Clouds,dailyrainin,SoftwareType,DateUTC
2013-01-29 00:10:00,26.9,25.1,29.99,NNE,17,0.0,5.0,93,0.00,OVC,,0.00,WeatherDisplay:10.37,2013-01-29 05:10:00,
2013-01-29 00:30:00,26.7,24.9,29.99,North,360,5.0,5.0,93,0.00,OVC,,0.00,WeatherDisplay:10.37,2013-01-29 05:30:00,
2013-01-29 00:40:00,26.6,24.8,29.99,NNW,338,0.0,3.0,93,0.00,OVC,,0.00,WeatherDisplay:10.37,2013-01-29 05:40:00,
2013-01-29 00:49:00,26.5,24.8,29.99,NNW,337,2.0,6.0,93,0.00,OVC,,0.00,WeatherDisplay:10.37,2013-01-29 05:49:00,
2013-01-29 00:59:00,26.5,24.8,29.99,NNW,346,0.0,5.0,93,0.00,OVC,,0.00,WeatherDisplay:10.37,2013-01-29 05:59:00,
2013-01-29 01:10:00,26.4,24.7,29.99,NW,324,0.0,6.0,93,0.00,OVC,,0.00,WeatherDisplay:10.37,2013-01-29 06:10:00,
2013-01-29 01:19:00,26.4,24.7,30.00,NW,325,3.0,5.0,93,0.00,OVC,,0.00,WeatherDisplay:10.37,2013-01-29 06:19:00,
2013-01-29 01:30:00,26.5,24.8,30.00,NNW,332,5.0,5.0,93,0.00,OVC,,0.00,WeatherDisplay:10.37,2013-01-29 06:30:00,
2013-01-29 01:40:00,26.6,24.8,30.01,NNW,342,1.0,5.0,93,0.00,OVC,,0.00,WeatherDisplay:10.37,2013-01-29 06:40:00,
2013-01-29 01:50:00,26.6,24.8,30.02,NW,321,2.0,5.0,93,0.00,OVC,,0.00,WeatherDisplay:10.37,2013-01-29 06:50:00,
2013-01-29 01:59:00,26.6,24.8,30.02,NNW,340,2.0,6.0,93,0.00,OVC,,0.00,WeatherDisplay:10.37,2013-01-29 06:59:00,
2013-01-29 02:09:00,26.7,24.9,30.02,North,360,0.0,5.0,93,0.00,OVC,,0.00,WeatherDisplay:10.37,2013-01-29 07:09:00,
2013-01-29 02:19:00,26.6,24.8,30.03,North,4,2.0,8.0,93,0.00,OVC,,0.00,WeatherDisplay:10.37,2013-01-29 07:19:00,
2013-01-29 02:29:00,26.7,24.9,30.03,NNW,336,0.0,6.0,93,0.00,OVC,,0.00,WeatherDisplay:10.37,2013-01-29 07:29:00,
2013-01-29 02:40:00,26.7,24.9,30.02,NNW,329,3.0,3.0,93,0.00,OVC,,0.00,WeatherDisplay:10.37,2013-01-29 07:40:00,
2013-01-29 02:49:00,26.8,25.0,30.03,NNW,331,5.0,5.0,93,0.00,OVC,,0.00,WeatherDisplay:10.37,2013-01-29 07:49:00,
2013-01-29 03:00:00,26.8,25.0,30.03,NNW,335,1.0,5.0,93,0.00,OVC,,0.00,WeatherDisplay:10.37,2013-01-29 08:00:00,
2013-01-29 03:10:00,26.9,25.1,30.04,NW,323,6.0,6.0,93,0.00,OVC,,0.00,WeatherDisplay:10.37,2013-01-29 08:10:00,
2013-01-29 03:19:00,26.9,25.1,30.04,NW,320,6.0,6.0,93,0.00,OVC,,0.00,WeatherDisplay:10.37,2013-01-29 08:19:00,
2013-01-29 03:30:00,26.9,25.1,30.04,NW,315,1.0,5.0,93,0.00,OVC,,0.00,WeatherDisplay:10.37,2013-01-29 08:30:00,
2013-01-29 03:39:00,27.0,25.2,30.04,NW,315,2.0,5.0,93,0.00,OVC,,0.00,WeatherDisplay:10.37,2013-01-29 08:39:00,
2013-01-29 03:49:00,27.0,25.2,30.05,NW,315,0.0,5.0,93,0.00,OVC,,0.00,WeatherDisplay:10.37,2013-01-29 08:49:00,
2013-01-29 03:59:00,27.0,25.3,30.05,NW,315,3.0,6.0,93,0.00,OVC,,0.00,WeatherDisplay:10.37,2013-01-29 08:59:00,
2013-01-29 04:09:00,27.1,25.3,30.05,NW,315,2.0,3.0,93,0.00,OVC,,0.00,WeatherDisplay:10.37,2013-01-29 09:09:00,
2013-01-29 04:19:00,27.0,25.2,30.05,NW,315,3.0,5.0,93,0.00,OVC,,0.00,WeatherDisplay:10.37,2013-01-29 09:19:00,
2013-01-29 04:29:00,27.0,25.2,30.05,NW,316,3.0,6.0,93,0.00,OVC,,0.00,WeatherDisplay:10.37,2013-01-29 09:29:00,
2013-01-29 04:39:00,26.9,25.1,30.06,NW,318,0.0,5.0,93,0.00,OVC,,0.00,WeatherDisplay:10.37,2013-01-29 09:39:00,
2013-01-29 04:49:00,26.9,25.1,30.06,West,270,1.0,6.0,93,0.00,OVC,,0.00,WeatherDisplay:10.37,2013-01-29 09:49:00,
2013-01-29 04:59:00,27.0,25.2,30.07,West,270,1.0,3.0,93,0.00,OVC,,0.00,WeatherDisplay:10.37,2013-01-29 09:59:00,
2013-01-29 05:09:00,27.0,25.3,30.07,West,270,0.0,3.0,93,0.00,OVC,,0.00,WeatherDisplay:10.37,2013-01-29 10:09:00,
2013-01-29 05:19:00,27.0,25.0,30.07,West,271,0.0,3.0,92,0.00,OVC,,0.00,WeatherDisplay:10.37,2013-01-29 10:19:00,
2013-01-29 05:29:00,27.1,25.3,30.07,West,271,0.0,3.0,93,0.00,OVC,,0.00,WeatherDisplay:10.37,2013-01-29 10:29:00,
2013-01-29 05:40:00,27.2,25.4,30.08,West,271,0.0,0.0,93,0.00,OVC,,0.00,WeatherDisplay:10.37,2013-01-29 10:40:00,
2013-01-29 05:49:00,27.2,25.4,30.08,West,271,0.0,2.0,93,0.00,OVC,,0.00,WeatherDisplay:10.37,2013-01-29 10:49:00,
2013-01-29 05:59:00,27.3,25.5,30.09,West,271,2.0,3.0,93,0.00,OVC,,0.00,WeatherDisplay:10.37,2013-01-29 10:59:00,
2013-01-29 06:09:00,27.3,25.3,30.08,West,271,2.0,3.0,92,0.00,OVC,,0.00,WeatherDisplay:10.37,2013-01-29 11:09:00,
2013-01-29 06:20:00,27.2,25.2,30.09,West,271,0.0,2.0,92,0.00,OVC,,0.00,WeatherDisplay:10.37,2013-01-29 11:20:00,
2013-01-29 06:29:00,27.3,25.3,30.09,West,271,0.0,2.0,92,0.00,OVC,,0.00,WeatherDisplay:10.37,2013-01-29 11:29:00,
2013-01-29 06:39:00,27.4,25.4,30.11,West,271,1.0,2.0,92,0.00,OVC,,0.00,WeatherDisplay:10.37,2013-01-29 11:39:00,
2013-01-29 06:50:00,27.4,25.4,30.11,West,271,1.0,3.0,92,0.00,OVC,,0.00,WeatherDisplay:10.37,2013-01-29 11:50:00,
2013-01-29 06:59:00,27.5,25.5,30.11,West,271,0.0,0.0,92,0.00,OVC,,0.00,WeatherDisplay:10.37,2013-01-29 11:59:00,
2013-01-29 07:09:00,27.5,25.5,30.11,West,271,1.0,2.0,92,0.00,OVC,,0.00,WeatherDisplay:10.37,2013-01-29 12:09:00,
2013-01-29 07:19:00,27.5,25.5,30.11,West,271,1.0,3.0,92,0.00,OVC,,0.00,WeatherDisplay:10.37,2013-01-29 12:19:00,
2013-01-29 07:29:00,27.6,25.6,30.13,West,273,0.0,3.0,92,0.00,OVC,,0.00,WeatherDisplay:10.37,2013-01-29 12:29:00,
2013-01-29 07:39:00,27.6,25.6,30.14,West,273,1.0,3.0,92,0.00,OVC,,0.00,WeatherDisplay:10.37,2013-01-29 12:39:00,
2013-01-29 07:49:00,27.7,25.7,30.14,West,273,0.0,3.0,92,0.00,OVC,,0.00,WeatherDisplay:10.37,2013-01-29 12:49:00,
2013-01-29 07:59:00,27.8,25.8,30.14,West,273,0.0,2.0,92,0.00,OVC,,0.00,WeatherDisplay:10.37,2013-01-29 12:59:00,
2013-01-29 08:09:00,28.0,26.0,30.14,West,273,0.0,3.0,92,0.00,OVC,,0.00,WeatherDisplay:10.37,2013-01-29 13:09:00,
2013-01-29 08:19:00,28.1,26.1,30.13,West,273,0.0,2.0,92,0.00,OVC,,0.00,WeatherDisplay:10.37,2013-01-29 13:19:00,
2013-01-29 08:29:00,28.2,26.2,30.13,West,273,1.0,3.0,92,0.00,OVC,,0.00,WeatherDisplay:10.37,2013-01-29 13:29:00,
2013-01-29 08:39:00,28.3,26.2,30.13,West,273,0.0,2.0,92,0.00,OVC,,0.00,WeatherDisplay:10.37,2013-01-29 13:39:00,
2013-01-29 08:49:00,28.4,26.4,30.13,West,273,0.0,3.0,92,0.00,OVC,,0.00,WeatherDisplay:10.37,2013-01-29 13:49:00,
2013-01-29 08:59:00,28.6,26.6,30.13,West,273,0.0,0.0,92,0.00,OVC,,0.00,WeatherDisplay:10.37,2013-01-29 13:59:00,
2013-01-29 09:09:00,28.8,26.5,30.14,West,273,1.0,3.0,91,0.00,OVC,,0.00,WeatherDisplay:10.37,2013-01-29 14:09:00,
2013-01-29 09:19:00,29.1,27.1,30.14,West,273,0.0,3.0,92,0.00,OVC,,0.00,WeatherDisplay:10.37,2013-01-29 14:19:00,
2013-01-29 09:29:00,29.6,27.3,30.13,West,273,0.0,3.0,91,0.00,OVC,,0.00,WeatherDisplay:10.37,2013-01-29 14:29:00,
2013-01-29 09:39:00,29.8,27.2,30.13,West,273,0.0,0.0,90,0.00,OVC,,0.00,WeatherDisplay:10.37,2013-01-29 14:39:00,
2013-01-29 09:49:00,30.3,27.7,30.15,West,273,0.0,2.0,90,0.00,OVC,,0.00,WeatherDisplay:10.37,2013-01-29 14:49:00,
2013-01-29 09:59:00,30.4,27.8,30.15,West,273,0.0,3.0,90,0.00,OVC,,0.00,WeatherDisplay:10.37,2013-01-29 14:59:00,
2013-01-29 10:09:00,30.4,27.9,30.16,West,273,0.0,5.0,90,0.00,OVC,,0.00,WeatherDisplay:10.37,2013-01-29 15:09:00,
2013-01-29 10:19:00,30.8,28.2,30.16,West,275,1.0,5.0,90,0.00,OVC,,0.00,WeatherDisplay:10.37,2013-01-29 15:19:00,
2013-01-29 10:29:00,31.0,28.5,30.16,NW,314,1.0,5.0,90,0.00,OVC,,0.00,WeatherDisplay:10.37,2013-01-29 15:29:00,
2013-01-29 10:39:00,31.5,28.9,30.16,NW,314,2.0,3.0,90,0.00,OVC,,0.00,WeatherDisplay:10.37,2013-01-29 15:39:00,
2013-01-29 10:49:00,31.7,28.8,30.15,NNW,344,2.0,3.0,89,0.00,OVC,,0.00,WeatherDisplay:10.37,2013-01-29 15:49:00,
2013-01-29 10:59:00,31.7,29.1,30.16,North,350,1.0,3.0,90,0.00,OVC,,0.00,WeatherDisplay:10.37,2013-01-29 15:59:00,
2013-01-29 11:09:00,31.7,29.1,30.16,NNE,13,0.0,5.0,90,0.00,OVC,,0.00,WeatherDisplay:10.37,2013-01-29 16:09:00,
2013-01-29 11:19:00,31.9,29.3,30.16,NE,43,3.0,5.0,90,0.00,OVC,,0.00,WeatherDisplay:10.37,2013-01-29 16:19:00,
2013-01-29 11:29:00,32.3,29.1,30.16,ENE,71,0.0,3.0,88,0.00,OVC,,0.00,WeatherDisplay:10.37,2013-01-29 16:29:00,
2013-01-29 11:39:00,32.7,29.9,30.14,ENE,64,2.0,5.0,89,0.00,OVC,,0.00,WeatherDisplay:10.37,2013-01-29 16:39:00,
2013-01-29 11:49:00,32.6,29.4,30.13,NE,45,5.0,6.0,88,0.00,OVC,,0.00,WeatherDisplay:10.37,2013-01-29 16:49:00,
2013-01-29 11:59:00,32.5,29.6,30.13,NE,52,2.0,6.0,89,0.00,OVC,,0.00,WeatherDisplay:10.37,2013-01-29 16:59:00,
2013-01-29 12:09:00,32.8,30.2,30.12,NE,55,1.0,3.0,90,0.00,BKN,,0.00,WeatherDisplay:10.37,2013-01-29 17:09:00,
2013-01-29 12:19:00,33.0,29.8,30.12,North,358,1.0,6.0,88,0.00,BKN,,0.00,WeatherDisplay:10.37,2013-01-29 17:19:00,
2013-01-29 12:29:00,33.2,30.0,30.11,NNW,346,3.0,5.0,88,0.01,RA,,0.01,WeatherDisplay:10.37,2013-01-29 17:29:00,
2013-01-29 12:39:00,33.5,30.6,30.12,NNW,338,2.0,5.0,89,0.01,RA,,0.02,WeatherDisplay:10.37,2013-01-29 17:39:00,
2013-01-29 12:49:00,34.2,31.1,30.11,WNW,299,3.0,5.0,88,0.02,RA,,0.04,WeatherDisplay:10.37,2013-01-29 17:49:00,
2013-01-29 12:59:00,34.5,31.0,30.10,West,276,1.0,3.0,87,0.01,RA,,0.05,WeatherDisplay:10.37,2013-01-29 17:59:00,
2013-01-29 13:09:00,34.1,30.9,30.10,West,277,0.0,5.0,88,0.01,RA,,0.06,WeatherDisplay:10.37,2013-01-29 18:09:00,
2013-01-29 13:19:00,34.2,31.0,30.10,WNW,284,0.0,5.0,88,0.00,OVC,,0.06,WeatherDisplay:10.37,2013-01-29 18:19:00,
2013-01-29 13:29:00,34.5,31.0,30.10,WNW,284,0.0,0.0,87,0.01,RA,,0.07,WeatherDisplay:10.37,2013-01-29 18:29:00,
2013-01-29 13:39:00,34.4,30.9,30.10,WNW,284,0.0,0.0,87,0.01,RA,,0.08,WeatherDisplay:10.37,2013-01-29 18:39:00,
2013-01-29 13:49:00,34.6,31.4,30.10,WNW,284,0.0,0.0,88,0.00,OVC,,0.08,WeatherDisplay:10.37,2013-01-29 18:49:00,
2013-01-29 13:59:00,34.8,31.6,30.10,WNW,284,0.0,2.0,88,0.01,RA,,0.09,WeatherDisplay:10.37,2013-01-29 18:59:00,
2013-01-29 14:09:00,34.7,31.5,30.09,NW,314,1.0,5.0,88,0.00,OVC,,0.09,WeatherDisplay:10.37,2013-01-29 19:09:00,
2013-01-29 14:19:00,34.5,31.3,30.10,NNW,330,0.0,1.0,88,0.01,RA,,0.10,WeatherDisplay:10.37,2013-01-29 19:19:00,
2013-01-29 14:29:00,34.4,31.2,30.09,NNW,330,0.0,0.0,88,0.00,OVC,,0.10,WeatherDisplay:10.37,2013-01-29 19:29:00,
2013-01-29 14:39:00,34.4,31.5,30.08,NNW,330,0.0,2.0,89,0.00,OVC,,0.10,WeatherDisplay:10.37,2013-01-29 19:39:00,
2013-01-29 14:49:00,34.5,31.6,30.09,NNW,330,0.0,3.0,89,0.00,OVC,,0.10,WeatherDisplay:10.37,2013-01-29 19:49:00,
2013-01-29 14:59:00,34.6,31.7,30.10,NNW,330,0.0,2.0,89,0.00,OVC,,0.10,WeatherDisplay:10.37,2013-01-29 19:59:00,
2013-01-29 15:09:00,34.6,31.7,30.11,NNW,330,0.0,2.0,89,0.00,OVC,,0.10,WeatherDisplay:10.37,2013-01-29 20:09:00,
2013-01-29 15:19:00,34.8,31.9,30.10,NNW,330,1.0,2.0,89,0.00,OVC,,0.10,WeatherDisplay:10.37,2013-01-29 20:19:00,
2013-01-29 15:29:00,34.6,31.7,30.09,NE,51,2.0,5.0,89,0.00,OVC,,0.10,WeatherDisplay:10.37,2013-01-29 20:29:00,
2013-01-29 15:39:00,34.4,31.5,30.08,East,94,3.0,5.0,89,0.01,RA,,0.11,WeatherDisplay:10.37,2013-01-29 20:39:00,
2013-01-29 15:49:00,34.2,31.6,30.08,ESE,107,3.0,5.0,90,0.00,OVC,,0.11,WeatherDisplay:10.37,2013-01-29 20:49:00,
2013-01-29 15:59:00,34.1,31.5,30.06,ESE,107,1.0,3.0,90,0.00,OVC,,0.11,WeatherDisplay:10.37,2013-01-29 20:59:00,
2013-01-29 16:09:00,34.1,31.5,30.05,East,92,3.0,5.0,90,0.00,-RA,,0.11,WeatherDisplay:10.37,2013-01-29 21:09:00,
2013-01-29 16:19:00,34.3,31.9,30.06,East,80,0.0,5.0,91,0.00,-RA,,0.11,WeatherDisplay:10.37,2013-01-29 21:19:00,
2013-01-29 16:29:00,34.4,32.0,30.07,NE,50,0.0,3.0,91,0.00,-RA,,0.11,WeatherDisplay:10.37,2013-01-29 21:29:00,
2013-01-29 16:39:00,34.3,31.9,30.07,NE,46,0.0,3.0,91,0.00,-RA,,0.11,WeatherDisplay:10.37,2013-01-29 21:39:00,
2013-01-29 16:49:00,34.2,31.8,30.07,NE,44,0.0,3.0,91,0.00,-RA,,0.11,WeatherDisplay:10.37,2013-01-29 21:49:00,
2013-01-29 16:59:00,34.1,32.0,30.07,NE,44,0.0,0.0,92,0.00,-RA,,0.11,WeatherDisplay:10.37,2013-01-29 21:59:00,
2013-01-29 17:09:00,34.2,32.1,30.06,NE,44,0.0,0.0,92,0.00,-RA,,0.11,WeatherDisplay:10.37,2013-01-29 22:09:00,
2013-01-29 17:19:00,34.1,32.0,30.06,NE,44,0.0,0.0,92,0.00,-RA,,0.11,WeatherDisplay:10.37,2013-01-29 22:19:00,
2013-01-29 17:29:00,34.1,32.0,30.04,ENE,57,0.0,5.0,92,0.00,-RA,,0.11,WeatherDisplay:10.37,2013-01-29 22:29:00,
2013-01-29 17:39:00,34.2,32.1,30.05,ENE,65,0.0,3.0,92,0.00,-RA,,0.11,WeatherDisplay:10.37,2013-01-29 22:39:00,
2013-01-29 17:49:00,34.1,32.1,30.05,ENE,65,0.0,2.0,92,0.00,-RA,,0.11,WeatherDisplay:10.37,2013-01-29 22:49:00,
2013-01-29 17:59:00,34.2,32.1,30.05,ENE,65,0.0,0.0,92,0.00,-RA,,0.11,WeatherDisplay:10.37,2013-01-29 22:59:00,
2013-01-29 18:09:00,34.2,32.1,30.05,ENE,65,0.0,0.0,92,0.00,OVC,,0.11,WeatherDisplay:10.37,2013-01-29 23:09:00,
2013-01-29 18:19:00,34.3,32.2,30.05,ENE,65,0.0,2.0,92,0.00,OVC,,0.11,WeatherDisplay:10.37,2013-01-29 23:19:00,
2013-01-29 18:29:00,34.3,32.2,30.05,ENE,65,0.0,0.0,92,0.00,OVC,,0.11,WeatherDisplay:10.37,2013-01-29 23:29:00,
2013-01-29 18:39:00,34.6,32.8,30.06,ENE,65,0.0,0.0,93,0.00,OVC,,0.11,WeatherDisplay:10.37,2013-01-29 23:39:00,
2013-01-29 18:49:00,34.4,32.3,30.06,ENE,65,0.0,3.0,92,0.00,OVC,,0.11,WeatherDisplay:10.37,2013-01-29 23:49:00,
2013-01-29 18:59:00,34.5,32.7,30.07,ENE,65,0.0,0.0,93,0.01,RA,,0.12,WeatherDisplay:10.37,2013-01-29 23:59:00,
2013-01-29 19:09:00,34.5,32.7,30.07,ENE,65,1.0,3.0,93,0.00,OVC,,0.12,WeatherDisplay:10.37,2013-01-30 00:09:00,
2013-01-29 19:19:00,34.3,32.5,30.05,ENE,65,1.0,3.0,93,0.02,RA,,0.14,WeatherDisplay:10.37,2013-01-30 00:19:00,
2013-01-29 19:29:00,34.2,32.4,30.06,East,100,1.0,5.0,93,0.01,RA,,0.15,WeatherDisplay:10.37,2013-01-30 00:29:00,
2013-01-29 19:39:00,34.4,32.9,30.04,SE,133,3.0,6.0,94,0.01,RA,,0.16,WeatherDisplay:10.37,2013-01-30 00:39:00,
2013-01-29 19:49:00,35.6,34.1,30.04,SSE,147,8.0,12.0,94,0.01,RA,,0.17,WeatherDisplay:10.37,2013-01-30 00:49:00,
2013-01-29 19:59:00,36.8,35.5,30.04,SSE,148,9.0,12.0,95,0.00,OVC,,0.17,WeatherDisplay:10.37,2013-01-30 00:59:00,
2013-01-29 20:09:00,37.3,35.7,30.03,SE,144,12.0,15.0,94,0.01,-RA,,0.18,WeatherDisplay:10.37,2013-01-30 01:09:00,
2013-01-29 20:19:00,37.6,36.0,30.04,SSE,152,9.0,15.0,94,0.00,-RA,,0.18,WeatherDisplay:10.37,2013-01-30 01:19:00,
2013-01-29 20:29:00,37.8,36.3,30.03,SSE,154,12.0,12.0,94,0.01,-RA,,0.19,WeatherDisplay:10.37,2013-01-30 01:29:00,
2013-01-29 20:39:00,38.0,36.2,30.03,SSE,150,13.0,18.0,93,0.01,-RA,,0.20,WeatherDisplay:10.37,2013-01-30 01:39:00,
2013-01-29 20:49:00,38.2,36.4,30.02,SSE,150,10.0,14.0,93,0.00,-RA,,0.20,WeatherDisplay:10.37,2013-01-30 01:49:00,
2013-01-29 20:59:00,38.3,36.5,30.02,SSE,152,8.0,18.0,93,0.02,-RA,,0.22,WeatherDisplay:10.37,2013-01-30 01:59:00,
2013-01-29 21:09:00,38.4,36.6,30.03,SSE,148,9.0,14.0,93,0.00,-RA,,0.22,WeatherDisplay:10.37,2013-01-30 02:09:00,
2013-01-29 21:19:00,38.6,36.8,30.03,SSE,147,12.0,20.0,93,0.01,-RA,,0.23,WeatherDisplay:10.37,2013-01-30 02:19:00,
2013-01-29 21:29:00,38.8,36.9,30.02,SE,146,13.0,17.0,93,0.00,-RA,,0.23,WeatherDisplay:10.37,2013-01-30 02:29:00,
2013-01-29 21:39:00,38.8,36.9,30.02,SSE,151,13.0,18.0,93,0.01,-RA,,0.24,WeatherDisplay:10.37,2013-01-30 02:39:00,
2013-01-29 21:49:00,38.9,36.8,30.02,SSE,154,16.0,20.0,92,0.01,-RA,,0.25,WeatherDisplay:10.37,2013-01-30 02:49:00,
2013-01-29 21:59:00,39.1,36.9,30.02,SE,146,17.0,20.0,92,0.01,-RA,,0.26,WeatherDisplay:10.37,2013-01-30 02:59:00,
2013-01-29 22:09:00,39.0,36.9,30.01,SSE,150,14.0,18.0,92,0.01,-RA,,0.27,WeatherDisplay:10.37,2013-01-30 03:09:00,
2013-01-29 22:19:00,38.9,36.8,30.01,SSE,149,15.0,18.0,92,0.01,-RA,,0.28,WeatherDisplay:10.37,2013-01-30 03:19:00,
2013-01-29 22:29:00,39.1,37.2,30.01,SE,146,16.0,21.0,93,0.02,-RA,,0.30,WeatherDisplay:10.37,2013-01-30 03:29:00,
2013-01-29 22:39:00,39.2,37.1,30.01,SE,142,10.0,17.0,92,0.00,-RA,,0.30,WeatherDisplay:10.37,2013-01-30 03:39:00,
2013-01-29 22:49:00,39.3,37.2,30.01,SSE,150,14.0,18.0,92,0.00,-RA,,0.30,WeatherDisplay:10.37,2013-01-30 03:49:00,
2013-01-29 22:59:00,39.3,37.2,30.02,SSE,150,10.0,18.0,92,0.01,-RA,,0.31,WeatherDisplay:10.37,2013-01-30 03:59:00,
2013-01-29 23:09:00,39.4,37.3,30.02,SSE,152,10.0,17.0,92,0.00,OVC,,0.31,WeatherDisplay:10.37,2013-01-30 04:09:00,
2013-01-29 23:19:00,39.5,37.4,30.02,SSE,151,9.0,17.0,92,0.01,RA,,0.32,WeatherDisplay:10.37,2013-01-30 04:19:00,
2013-01-29 23:29:00,39.7,37.6,30.02,SSE,152,12.0,18.0,92,0.00,OVC,,0.32,WeatherDisplay:10.37,2013-01-30 04:29:00,
2013-01-29 23:39:00,39.7,37.3,30.02,SSE,149,13.0,15.0,91,0.00,OVC,,0.32,WeatherDisplay:10.37,2013-01-30 04:39:00,
2013-01-29 23:49:00,39.9,37.5,30.02,SSE,150,12.0,21.0,91,0.01,RA,,0.33,WeatherDisplay:10.37,2013-01-30 04:49:00,
2013-01-29 23:59:00,40.0,37.5,30.02,SE,141,12.0,17.0,91,0.00,RA,,0.00,WeatherDisplay:10.37,2013-01-30 04:59:00,